Location: Drocourt
(49.0571°N, 1.7669°E)
Time: 05:40:37
(UTC+00:00)

SR - Pass Details

Date: 27 April 2024
Orbit: 579 x 859 km, 66.7° (Epoch: 26 May)

Event Time Altitude Azimuth Distance (km) Brightness Sun altitude
Exits shadow 23:44:14 54° 85° (E) 919 ? -26.7°
Drops below altitude 10° 23:48:28 10° 42° (NE) 2,206 ? -26.7°
Sets 23:50:45 0° 39° (NE) 3,084 ? -26.7°
